THOR AGENA B DEB, 1951

Orbit data source: Space-Track

THOR AGENA B DEB, 1951 is space debris in LEO originally from a launch on Mon, 29 Nov 1965 UTC launched from the Air Force Western Test Range (AFWTR). Debris objects in space refer to the collection of defunct objects orbiting the Earth. Examples of debris include non-operational satellites, rocket bodies, and fragments generated from explosions, collisions, or faulty payload assembly.

Loading next visibility...
Identifier
1951, 1965-098G
Orbit
LEO
Country
Flag of USUS
Related business
Manufacturer
Unknown
Mission
Spacecraft
Bus & Motor
Unknown
Mass
~1 kg wet, ~1 kg dry
Launch date (UTC)
1965-11-29 (60 years ago)
Launch vehicle
Unknown
Launch site
Air Force Western Test Range (AFWTR)
Object type
Payload
Rocket body
Debris
Shape & HBR
Unknown
Radar Cross Section
Medium (>0.1 m² and <1 m²)

Expand to show TLE details & history
Last TLE update: 19 hours ago

TLE from 19 hours ago
0 THOR AGENA B DEB
1  1951U 65098G   25298.99250729  .00006397  00000-0  11940-2 0  9995
2  1951  79.6141 194.9583 0774009 118.0362 250.1256 13.55534965775863
Epoch: 2025-10-25T23:49Z
TLE epoch observation values (Epoch: 2025-10-25T23:49:12.629Z)
Latitude
-0.00003°
Longitude
163.04057°
Altitude
1,288.071 km
Speed
7.098 km/s
True Right ascension
12h 59m 49s
True Declination
0° 00' 00"
Sunlit
Object was in daylight at epoch
Visualization orbit readout
Latitude
Unknown
Longitude
Unknown
Altitude
Unknown
Speed
Unknown
Apparent Right ascension
Unknown
Apparent Declination
Unknown
Sunlit
N/A
Visualization observer readout
Local Sidereal Time
14:28:48
Azimuth
Unknown
Elevation
Unknown
Doppler factor
Unknown
Orbital elements
Apogee altitude
1,624.158 km
Perigee altitude
474.382 km
Semi-major axis
7,427.407 km
Eccentricity
0.0774
Inclination
79.6141°
RAAN
194.9583°
Arg. of periapsis
118.0362°
True anomaly
242.07675°
Mean anomaly
250.1256°
Eccentric anomaly
246.072°
Mean motion
3.39068 °/min
Orbital period
106.17 mins
BSTAR
0.001194
Loading maneuver chart data...
Computing Atmospheric mass density...
Loading historical data...
Loading historical data...
Loading historical data...
Loading historical data...
Loading historical data...
Loading historical data...
Loading historical data...

Documentation

Showing up to 5 results
|